| time (UTC) | temp F | wind direction | speed knots | gust knots | rain 1hr in | rain 24hr in | rain mn in | humidity % | barometer mb |
| 20260507084558 | 37 | 255 | 0.0 | 0.0 | 0.00 | 0.47 | 0.00 | 95 | 1013.6 |
| 20260507083058 | 36 | 255 | 0.0 | 0.0 | 0.00 | 0.47 | 0.00 | 95 | 1013.3 |
| 20260507081556 | 36 | 255 | 0.0 | 0.0 | 0.00 | 0.47 | 0.00 | 95 | 1014.0 |
| 20260507080038 | 36 | 255 | 0.0 | 0.0 | 0.00 | 0.56 | 0.00 | 94 | 1014.0 |
| 20260507074537 | 37 | 255 | 0.0 | 0.0 | 0.00 | 0.56 | 0.00 | 94 | 1013.7 |
| 20260507073049 | 37 | 255 | 0.0 | 0.0 | 0.00 | 0.56 | 0.00 | 95 | 1013.6 |
| 20260507071536 | 38 | 255 | 0.0 | 0.0 | 0.00 | 0.56 | 0.00 | 94 | 1014.0 |
| 20260507070028 | 38 | 255 | 0.0 | 0.0 | 0.00 | 0.69 | 0.00 | 94 | 1014.1 |
| 20260507064513 | 39 | 255 | 0.0 | 0.0 | 0.00 | 0.69 | 0.00 | 94 | 1014.3 |
| 20260507063102 | 39 | 255 | 0.0 | 0.0 | 0.00 | 0.69 | 0.00 | 94 | 1014.1 |
| 20260507061550 | 39 | 255 | 0.0 | 0.0 | 0.00 | 0.69 | 0.00 | 94 | 1014.1 |
| 20260507060005 | 39 | 255 | 0.0 | 0.0 | 0.00 | 0.84 | 0.00 | 94 | 1013.9 |
| 20260507054501 | 40 | 255 | 0.0 | 0.0 | 0.00 | 0.84 | 0.00 | 94 | 1014.0 |
| 20260507053050 | 40 | 255 | 0.0 | 0.0 | 0.00 | 0.84 | 0.00 | 95 | 1014.3 |
| 20260507051542 | 41 | 255 | 0.0 | 0.0 | 0.00 | 0.84 | 0.00 | 95 | 1014.4 |
| 20260507050056 | 41 | 255 | 0.0 | 0.0 | 0.00 | 0.94 | 0.00 | 95 | 1014.5 |
| 20260507044556 | 41 | 255 | 0.0 | 0.9 | 0.00 | 0.94 | 0.00 | 95 | 1014.8 |
| 20260507043052 | 41 | 255 | 0.0 | 0.0 | 0.00 | 0.94 | 0.00 | 95 | 1014.6 |
| 20260507041547 | 41 | 255 | 0.0 | 0.0 | 0.00 | 0.94 | 0.00 | 94 | 1014.4 |
| 20260507040107 | 41 | 255 | 0.0 | 0.0 | 0.00 | 1.04 | 0.00 | 95 | 1014.3 |
| 20260507034537 | 41 | 255 | 0.0 | 0.0 | 0.00 | 1.04 | 0.94 | 94 | 1014.1 |
| 20260507033024 | 41 | 255 | 0.0 | 0.0 | 0.00 | 1.04 | 0.94 | 94 | 1014.2 |
| 20260507031546 | 42 | 255 | 0.0 | 0.9 | 0.00 | 1.04 | 0.94 | 94 | 1014.2 |
| 20260507030030 | 42 | 255 | 0.0 | 0.9 | 0.00 | 1.05 | 0.94 | 95 | 1014.1 |
| 20260507024546 | 42 | 255 | 0.0 | 0.9 | 0.00 | 1.05 | 0.94 | 94 | 1014.1 |
| 20260507023046 | 42 | 265 | 0.0 | 0.0 | 0.00 | 1.05 | 0.94 | 94 | 1013.9 |
| 20260507021556 | 42 | 265 | 0.0 | 0.9 | 0.00 | 1.05 | 0.94 | 94 | 1014.1 |
| 20260507020055 | 42 | 265 | 0.0 | 0.0 | 0.00 | 1.09 | 0.94 | 94 | 1014.1 |
| 20260507014553 | 42 | 265 | 0.0 | 0.0 | 0.00 | 1.09 | 0.94 | 94 | 1014.0 |
| 20260507013015 | 42 | 265 | 0.0 | 0.0 | 0.00 | 1.09 | 0.94 | 94 | 1013.6 |
| 20260507011509 | 42 | 265 | 0.0 | 0.9 | 0.00 | 1.09 | 0.94 | 94 | 1013.8 |
| 20260507010014 | 42 | 265 | 0.0 | 1.7 | 0.00 | 1.14 | 0.94 | 94 | 1013.7 |
| 20260507004510 | 42 | 19 | 0.0 | 0.9 | 0.00 | 1.14 | 0.94 | 93 | 1013.5 |
| 20260507003036 | 42 | 24 | 0.0 | 0.0 | 0.00 | 1.14 | 0.94 | 93 | 1013.7 |
| 20260507001532 | 42 | 24 | 0.0 | 0.9 | 0.00 | 1.14 | 0.94 | 93 | 1013.5 |
| 20260507000020 | 42 | 24 | 0.0 | 1.7 | 0.02 | 1.21 | 0.94 | 92 | 1013.2 |
| 20260506234550 | 42 | 16 | 0.9 | 3.5 | 0.05 | 1.21 | 0.94 | 92 | 1013.2 |
| 20260506233112 | 43 | 344 | 1.7 | 7.8 | 0.09 | 1.21 | 0.94 | 91 | 1012.8 |
| 20260506233001 | 43 | 323 | 0.9 | 3.5 | 0.09 | 1.21 | 0.94 | 91 | 1012.9 |
| 20260506231524 | 44 | 335 | 0.9 | 3.5 | 0.11 | 1.21 | 0.94 | 91 | 1012.9 |
| 20260506230043 | 45 | 355 | 0.9 | 4.3 | 0.11 | 1.23 | 0.92 | 90 | 1012.7 |
| 20260506224556 | 47 | 355 | 1.7 | 6.1 | 0.09 | 1.20 | 0.89 | 89 | 1012.2 |
| 20260506223051 | 48 | 15 | 0.0 | 0.9 | 0.05 | 1.15 | 0.85 | 89 | 1011.6 |
| 20260506221557 | 48 | 15 | 0.0 | 0.9 | 0.02 | 1.12 | 0.83 | 88 | 1011.4 |
| 20260506220048 | 49 | 15 | 0.0 | 0.0 | 0.01 | 1.12 | 0.81 | 87 | 1011.3 |
| 20260506214520 | 49 | 15 | 0.0 | 2.6 | 0.00 | 1.12 | 0.80 | 85 | 1011.2 |
| 20260506213021 | 49 | 355 | 0.0 | 2.6 | 0.00 | 1.12 | 0.80 | 84 | 1011.0 |
| 20260506211528 | 49 | 188 | 0.0 | 1.7 | 0.00 | 1.12 | 0.80 | 85 | 1010.9 |
| 20260506210028 | 49 | 207 | 0.0 | 0.9 | 0.00 | 1.12 | 0.80 | 85 | 1011.0 |
| 20260506204540 | 49 | 207 | 0.0 | 1.7 | 0.00 | 1.12 | 0.80 | 85 | 1011.0 |
| 20260506203033 | 49 | 207 | 0.0 | 0.9 | 0.00 | 1.12 | 0.80 | 85 | 1011.1 |
| 20260506201550 | 49 | 220 | 0.0 | 0.9 | 0.00 | 1.12 | 0.80 | 85 | 1011.3 |
| 20260506200052 | 49 | 232 | 0.0 | 0.9 | 0.00 | 1.12 | 0.80 | 86 | 1011.2 |
| 20260506194548 | 49 | 254 | 0.0 | 1.7 | 0.00 | 1.12 | 0.80 | 88 | 1011.2 |
| 20260506193031 | 48 | 164 | 0.9 | 1.7 | 0.00 | 1.12 | 0.80 | 90 | 1011.0 |
| 20260506191527 | 47 | 181 | 0.0 | 0.9 | 0.00 | 1.12 | 0.80 | 91 | 1011.1 |
| 20260506190011 | 47 | 182 | 0.9 | 2.6 | 0.00 | 1.12 | 0.80 | 92 | 1011.2 |
| 20260506184509 | 46 | 117 | 0.0 | 1.7 | 0.00 | 1.12 | 0.80 | 93 | 1011.4 |
| 20260506183015 | 46 | 82 | 0.0 | 1.7 | 0.00 | 1.12 | 0.80 | 94 | 1011.4 |
| 20260506181537 | 45 | 10 | 0.0 | 3.5 | 0.00 | 1.12 | 0.80 | 94 | 1011.3 |
| 20260506180026 | 45 | 27 | 0.0 | 2.6 | 0.00 | 1.12 | 0.80 | 95 | 1011.5 |
| 20260506174527 | 45 | 36 | 0.0 | 3.5 | 0.00 | 1.12 | 0.80 | 94 | 1011.5 |
| 20260506173029 | 45 | 42 | 0.0 | 1.7 | 0.00 | 1.12 | 0.80 | 95 | 1011.4 |
| 20260506171524 | 45 | 355 | 0.9 | 3.5 | 0.00 | 1.12 | 0.80 | 95 | 1011.2 |
| 20260506170039 | 45 | 26 | 1.7 | 3.5 | 0.00 | 1.12 | 0.80 | 96 | 1010.9 |
| 20260506164612 | 44 | 27 | 2.6 | 5.2 | 0.00 | 1.12 | 0.80 | 96 | 1011.0 |
| 20260506163024 | 44 | 346 | 0.9 | 4.3 | 0.00 | 1.12 | 0.80 | 96 | 1010.9 |
| 20260506161505 | 44 | 76 | 0.9 | 3.5 | 0.00 | 1.12 | 0.80 | 96 | 1011.1 |
| 20260506160018 | 43 | 42 | 0.9 | 2.6 | 0.01 | 1.12 | 0.80 | 96 | 1011.0 |
| 20260506154537 | 43 | 57 | 1.7 | 4.3 | 0.01 | 1.12 | 0.80 | 96 | 1010.9 |
| 20260506153015 | 43 | 147 | 0.9 | 2.6 | 0.01 | 1.12 | 0.80 | 96 | 1011.1 |
| 20260506151515 | 43 | 61 | 0.0 | 2.6 | 0.01 | 1.12 | 0.80 | 96 | 1010.7 |
| 20260506150018 | 43 | 19 | 0.0 | 4.3 | 0.00 | 1.11 | 0.80 | 95 | 1010.7 |
| 20260506144508 | 43 | 43 | 0.9 | 3.5 | 0.00 | 1.11 | 0.79 | 96 | 1010.7 |
| 20260506143059 | 43 | 46 | 0.9 | 3.5 | 0.00 | 1.11 | 0.79 | 95 | 1010.6 |
| 20260506143001 | 43 | 53 | 1.7 | 3.5 | 0.00 | 1.11 | 0.79 | 96 | 1010.6 |
| 20260506141510 | 43 | 17 | 0.9 | 2.6 | 0.01 | 1.11 | 0.79 | 95 | 1010.3 |
| 20260506140021 | 43 | 59 | 0.0 | 3.5 | 0.03 | 1.11 | 0.79 | 96 | 1010.3 |
| 20260506134514 | 43 | 5 | 0.0 | 1.7 | 0.03 | 1.11 | 0.79 | 96 | 1010.2 |
| 20260506133007 | 43 | 114 | 0.9 | 4.3 | 0.04 | 1.11 | 0.79 | 96 | 1010.2 |
| 20260506131504 | 42 | 144 | 0.0 | 2.6 | 0.04 | 1.10 | 0.78 | 96 | 1010.0 |
| 20260506130003 | 42 | 144 | 0.0 | 3.5 | 0.04 | 1.08 | 0.76 | 95 | 1010.0 |
| 20260506124542 | 42 | 248 | 0.9 | 2.6 | 0.06 | 1.08 | 0.76 | 95 | 1009.8 |
| 20260506123036 | 42 | 189 | 0.9 | 2.6 | 0.06 | 1.07 | 0.75 | 95 | 1009.7 |
| 20260506121600 | 42 | 35 | 0.9 | 3.5 | 0.06 | 1.06 | 0.74 | 95 | 1009.6 |
| 20260506120106 | 43 | 294 | 0.0 | 2.6 | 0.05 | 1.04 | 0.72 | 95 | 1009.9 |
| 20260506114558 | 43 | 148 | 0.9 | 2.6 | 0.04 | 1.02 | 0.70 | 95 | 1009.7 |
| 20260506114502 | 43 | 146 | 0.9 | 2.6 | 0.04 | 1.02 | 0.70 | 95 | 1009.7 |
| 20260506113051 | 43 | 198 | 0.0 | 2.6 | 0.05 | 1.01 | 0.69 | 95 | 1009.9 |
| 20260506111516 | 43 | 173 | 0.0 | 5.2 | 0.05 | 1.00 | 0.68 | 95 | 1009.7 |
| 20260506110030 | 43 | 79 | 0.0 | 3.5 | 0.06 | 0.99 | 0.67 | 95 | 1009.5 |
| 20260506104557 | 43 | 119 | 0.9 | 3.5 | 0.08 | 0.98 | 0.66 | 95 | 1009.3 |
| 20260506103046 | 43 | 46 | 0.0 | 2.6 | 0.08 | 0.96 | 0.64 | 95 | 1009.5 |
| 20260506101503 | 43 | 15 | 0.0 | 4.3 | 0.09 | 0.95 | 0.63 | 95 | 1009.7 |
| 20260506100008 | 43 | 21 | 0.9 | 4.3 | 0.07 | 0.92 | 0.60 | 95 | 1009.8 |
| 20260506094525 | 43 | 48 | 0.9 | 2.6 | 0.06 | 0.90 | 0.57 | 95 | 1009.8 |
| 20260506093100 | 43 | 10 | 0.0 | 2.6 | 0.06 | 0.88 | 0.56 | 95 | 1009.9 |
| 20260506091527 | 43 | 49 | 0.0 | 2.6 | 0.05 | 0.86 | 0.54 | 95 | 1009.6 |
| 20260506090025 | 44 | 22 | 0.9 | 4.3 | 0.06 | 0.85 | 0.53 | 95 | 1009.6 |